UAL43 EDDF-KEWR

Flight info

Callsign UAL43
Flight time N/A
Altitude 34000
Route OBOKA5G/25C OBOKA Z29 TORNU DCT BATAK DCT GALSO Q63 ERING L179 UGBET Q60 OKSAW DCT BIBPE DCT FELCA DCT FADZU DCT OFSOX DCT SLANY DCT TOBOR/M084F360 NATC ELSIR/N0473F380 N402C ALLEX DCT HANAA FLOSI4
Aircraft B77W/H-SDE1E2E3FGHIJ2J3J4J5M1RWXY/LB1D1

Departure

Time 2026-05-06 08:20
Airport Frankfurt Main Airport (EDDF)

Arrival

Time N/A
Airport Newark Liberty International Airport (KEWR)
Time Latitude Longitude Altitude Speed Heading
2026-05-06 07:54 50.05017 8.58538 364 ft 0 kts 339°
2026-05-06 08:11 50.05006 8.58544 370 ft 4 kts 340°
2026-05-06 08:11 50.04980 8.58558 365 ft 4 kts 340°
2026-05-06 08:12 50.04958 8.58571 368 ft 3 kts 340°
2026-05-06 08:12 50.04936 8.58576 367 ft 4 kts 30°
2026-05-06 08:12 50.04921 8.58547 371 ft 4 kts 69°
2026-05-06 08:12 50.04912 8.58510 364 ft 3 kts 69°
2026-05-06 08:13 50.04911 8.58505 364 ft 0 kts 69°
2026-05-06 08:16 50.04912 8.58509 364 ft 3 kts 70°
2026-05-06 08:17 50.04927 8.58576 370 ft 8 kts 71°
2026-05-06 08:17 50.04923 8.58650 370 ft 7 kts 130°
2026-05-06 08:17 50.04879 8.58689 369 ft 7 kts 160°
2026-05-06 08:17 50.04831 8.58716 374 ft 7 kts 159°
2026-05-06 08:18 50.04783 8.58744 374 ft 7 kts 159°
2026-05-06 08:18 50.04734 8.58767 376 ft 7 kts 172°
2026-05-06 08:18 50.04683 8.58764 375 ft 7 kts 185°
2026-05-06 08:18 50.04632 8.58754 375 ft 7 kts 192°
2026-05-06 08:19 50.04586 8.58719 379 ft 8 kts 214°
2026-05-06 08:19 50.04541 8.58667 379 ft 8 kts 217°
2026-05-06 08:19 50.04511 8.58632 379 ft 8 kts 218°
2026-05-06 08:19 50.04465 8.58496 376 ft 29 kts 249°
2026-05-06 08:20 50.04310 8.57847 370 ft 99 kts 249°
2026-05-06 08:20 50.03993 8.56529 365 ft 158 kts 249°
2026-05-06 08:20 50.03583 8.54730 556 ft 184 kts 247°
2026-05-06 08:20 50.03120 8.52859 1162 ft 187 kts 246°
2026-05-06 08:21 50.02686 8.50971 1882 ft 184 kts 257°
2026-05-06 08:21 50.02722 8.48959 2333 ft 194 kts 277°
2026-05-06 08:21 50.02931 8.46779 2593 ft 212 kts 274°
2026-05-06 08:21 50.03052 8.44397 2918 ft 229 kts 265°
2026-05-06 08:22 50.02780 8.41906 3411 ft 240 kts 256°
2026-05-06 08:22 50.02413 8.39327 4039 ft 247 kts 258°
2026-05-06 08:22 50.02095 8.36681 4757 ft 252 kts 259°
2026-05-06 08:22 50.01776 8.33976 5029 ft 256 kts 258°